iso_date,Year,Hour,Min,DOY,POS_DOY,Lat,Lon,BP,Ts,Ta,has_bp,has_ts,has_ta,BuoyID,Buoy_Type,Buoy_Owner,Logistics,Hemisphere
2019-11-06T00:00:00Z,2019,0,0,310.0,310.0,85.8461,113.1818,1023.9,-11.67,-999.0,yes,yes,no,300234066084230,BD2GI,AOML,POLAR_STERN,North
2019-11-06T01:00:02Z,2019,1,0,310.0417,310.0417,85.8456,113.1439,1024.2,-11.53,-999.0,yes,yes,no,300234066084230,BD2GI,AOML,POLAR_STERN,North
2019-11-06T01:59:57Z,2019,2,0,310.0833,310.0833,85.8451,113.1089,1024.3,-11.37,-999.0,yes,yes,no,300234066084230,BD2GI,AOML,POLAR_STERN,North
2019-11-06T03:00:00Z,2019,3,0,310.125,310.125,85.8446,113.0757,1024.3,-11.3,-999.0,yes,yes,no,300234066084230,BD2GI,AOML,POLAR_STERN,North
2019-11-06T04:00:02Z,2019,4,0,310.1667,310.1667,85.8439,113.0427,1024.6,-11.31,-999.0,yes,yes,no,300234066084230,BD2GI,AOML,POLAR_STERN,North
2019-11-06T04:59:57Z,2019,5,0,310.2083,310.2083,85.843,113.009,1025.0,-11.24,-999.0,yes,yes,no,300234066084230,BD2GI,AOML,POLAR_STERN,North
2019-11-06T06:00:00Z,2019,6,0,310.25,310.25,85.8421,112.9737,1025.3,-11.14,-999.0,yes,yes,no,300234066084230,BD2GI,AOML,POLAR_STERN,North
2019-11-06T07:00:02Z,2019,7,0,310.2917,310.2917,85.8411,112.9349,1025.9,-11.07,-999.0,yes,yes,no,300234066084230,BD2GI,AOML,POLAR_STERN,North
2019-11-06T07:59:57Z,2019,8,0,310.3333,310.3333,85.8402,112.8932,1026.3,-11.07,-999.0,yes,yes,no,300234066084230,BD2GI,AOML,POLAR_STERN,North
2019-11-06T09:00:00Z,2019,9,0,310.375,310.375,85.8395,112.8496,1026.6,-11.07,-999.0,yes,yes,no,300234066084230,BD2GI,AOML,POLAR_STERN,North
2019-11-06T10:00:02Z,2019,10,0,310.4167,310.4167,85.839,112.8045,1026.9,-11.06,-999.0,yes,yes,no,300234066084230,BD2GI,AOML,POLAR_STERN,North
2019-11-06T10:59:57Z,2019,11,0,310.4583,310.4583,85.8389,112.757,1027.2,-11.12,-999.0,yes,yes,no,300234066084230,BD2GI,AOML,POLAR_STERN,North
2019-11-06T12:00:00Z,2019,12,0,310.5,310.5,85.839,112.7113,1027.2,-11.17,-999.0,yes,yes,no,300234066084230,BD2GI,AOML,POLAR_STERN,North
2019-11-06T13:00:02Z,2019,13,0,310.5417,310.5417,85.8393,112.6692,1027.2,-11.24,-999.0,yes,yes,no,300234066084230,BD2GI,AOML,POLAR_STERN,North
2019-11-06T13:59:57Z,2019,14,0,310.5833,310.5833,85.8397,112.631,1027.5,-11.26,-999.0,yes,yes,no,300234066084230,BD2GI,AOML,POLAR_STERN,North
2019-11-06T15:00:00Z,2019,15,0,310.625,310.625,85.8401,112.5969,1027.8,-11.25,-999.0,yes,yes,no,300234066084230,BD2GI,AOML,POLAR_STERN,North
2019-11-06T16:00:02Z,2019,16,0,310.6667,310.6667,85.8403,112.5656,1028.1,-11.03,-999.0,yes,yes,no,300234066084230,BD2GI,AOML,POLAR_STERN,North
2019-11-06T16:59:57Z,2019,17,0,310.7083,310.7083,85.8402,112.5349,1028.2,-10.76,-999.0,yes,yes,no,300234066084230,BD2GI,AOML,POLAR_STERN,North
2019-11-06T18:00:00Z,2019,18,0,310.75,310.75,85.8399,112.5028,1028.5,-10.6,-999.0,yes,yes,no,300234066084230,BD2GI,AOML,POLAR_STERN,North
2019-11-06T19:00:02Z,2019,19,0,310.7917,310.7917,85.8395,112.4684,1028.9,-10.42,-999.0,yes,yes,no,300234066084230,BD2GI,AOML,POLAR_STERN,North
2019-11-06T19:59:57Z,2019,20,0,310.8333,310.8333,85.8391,112.4315,1029.1,-10.26,-999.0,yes,yes,no,300234066084230,BD2GI,AOML,POLAR_STERN,North
2019-11-06T21:00:00Z,2019,21,0,310.875,310.875,85.8388,112.3924,1029.6,-10.19,-999.0,yes,yes,no,300234066084230,BD2GI,AOML,POLAR_STERN,North
2019-11-06T22:00:02Z,2019,22,0,310.9167,310.9167,85.8386,112.3527,1029.9,-10.12,-999.0,yes,yes,no,300234066084230,BD2GI,AOML,POLAR_STERN,North
2019-11-06T22:59:57Z,2019,23,0,310.9583,310.9583,85.8387,112.3129,1030.2,-9.98,-999.0,yes,yes,no,300234066084230,BD2GI,AOML,POLAR_STERN,North
2019-11-07T00:00:00Z,2019,0,0,311.0,311.0,85.8391,112.275,1030.3,-9.85,-999.0,yes,yes,no,300234066084230,BD2GI,AOML,POLAR_STERN,North
2019-11-07T01:00:02Z,2019,1,0,311.0417,311.0417,85.8396,112.24,1030.3,-9.77,-999.0,yes,yes,no,300234066084230,BD2GI,AOML,POLAR_STERN,North
2019-11-07T01:59:57Z,2019,2,0,311.0833,311.0833,85.84,112.2088,1030.4,-9.7,-999.0,yes,yes,no,300234066084230,BD2GI,AOML,POLAR_STERN,North
2019-11-07T03:00:00Z,2019,3,0,311.125,311.125,85.8404,112.1811,1030.4,-9.67,-999.0,yes,yes,no,300234066084230,BD2GI,AOML,POLAR_STERN,North
2019-11-07T04:00:02Z,2019,4,0,311.1667,311.1667,85.8405,112.1554,1030.3,-9.67,-999.0,yes,yes,no,300234066084230,BD2GI,AOML,POLAR_STERN,North
2019-11-07T04:59:57Z,2019,5,0,311.2083,311.2083,85.8403,112.1299,1030.3,-9.68,-999.0,yes,yes,no,300234066084230,BD2GI,AOML,POLAR_STERN,North
2019-11-07T06:00:00Z,2019,6,0,311.25,311.25,85.8399,112.1042,1030.5,-9.77,-999.0,yes,yes,no,300234066084230,BD2GI,AOML,POLAR_STERN,North
2019-11-07T07:00:02Z,2019,7,0,311.2917,311.2917,85.8392,112.0759,1030.4,-9.92,-999.0,yes,yes,no,300234066084230,BD2GI,AOML,POLAR_STERN,North
2019-11-07T07:59:57Z,2019,8,0,311.3333,311.3333,85.8385,112.044,1030.2,-10.08,-999.0,yes,yes,no,300234066084230,BD2GI,AOML,POLAR_STERN,North
2019-11-07T09:00:00Z,2019,9,0,311.375,311.375,85.8376,112.0098,1030.2,-10.2,-999.0,yes,yes,no,300234066084230,BD2GI,AOML,POLAR_STERN,North
2019-11-07T10:00:02Z,2019,10,0,311.4167,311.4167,85.8368,111.9738,1030.1,-10.3,-999.0,yes,yes,no,300234066084230,BD2GI,AOML,POLAR_STERN,North
2019-11-07T10:59:57Z,2019,11,0,311.4583,311.4583,85.8361,111.9392,1029.9,-10.36,-999.0,yes,yes,no,300234066084230,BD2GI,AOML,POLAR_STERN,North
2019-11-07T12:00:00Z,2019,12,0,311.5,311.5,85.8356,111.9076,1029.7,-10.39,-999.0,yes,yes,no,300234066084230,BD2GI,AOML,POLAR_STERN,North
2019-11-07T13:00:02Z,2019,13,0,311.5417,311.5417,85.8352,111.8792,1029.3,-10.38,-999.0,yes,yes,no,300234066084230,BD2GI,AOML,POLAR_STERN,North
2019-11-07T13:59:57Z,2019,14,0,311.5833,311.5833,85.8349,111.8541,1029.1,-10.38,-999.0,yes,yes,no,300234066084230,BD2GI,AOML,POLAR_STERN,North
2019-11-07T15:00:00Z,2019,15,0,311.625,311.625,85.8344,111.8329,1028.7,-10.37,-999.0,yes,yes,no,300234066084230,BD2GI,AOML,POLAR_STERN,North
2019-11-07T16:00:02Z,2019,16,0,311.6667,311.6667,85.834,111.8146,1028.6,-10.39,-999.0,yes,yes,no,300234066084230,BD2GI,AOML,POLAR_STERN,North
2019-11-07T16:59:57Z,2019,17,0,311.7083,311.7083,85.8334,111.7979,1028.3,-10.43,-999.0,yes,yes,no,300234066084230,BD2GI,AOML,POLAR_STERN,North
2019-11-07T18:00:00Z,2019,18,0,311.75,311.75,85.8326,111.7804,1028.0,-10.51,-999.0,yes,yes,no,300234066084230,BD2GI,AOML,POLAR_STERN,North
2019-11-07T19:00:02Z,2019,19,0,311.7917,311.7917,85.8316,111.7611,1027.8,-10.62,-999.0,yes,yes,no,300234066084230,BD2GI,AOML,POLAR_STERN,North
2019-11-07T19:59:57Z,2019,20,0,311.8333,311.8333,85.8305,111.7397,1027.5,-10.76,-999.0,yes,yes,no,300234066084230,BD2GI,AOML,POLAR_STERN,North
2019-11-07T21:00:00Z,2019,21,0,311.875,311.875,85.8294,111.7143,1027.4,-10.88,-999.0,yes,yes,no,300234066084230,BD2GI,AOML,POLAR_STERN,North
2019-11-07T22:00:02Z,2019,22,0,311.9167,311.9167,85.8285,111.687,1027.1,-11.02,-999.0,yes,yes,no,300234066084230,BD2GI,AOML,POLAR_STERN,North
2019-11-07T22:59:57Z,2019,23,0,311.9583,311.9583,85.8277,111.6588,1026.7,-11.15,-999.0,yes,yes,no,300234066084230,BD2GI,AOML,POLAR_STERN,North
2019-11-08T00:00:00Z,2019,0,0,312.0,312.0,85.8271,111.6331,1026.5,-11.28,-999.0,yes,yes,no,300234066084230,BD2GI,AOML,POLAR_STERN,North
2019-11-08T01:00:02Z,2019,1,0,312.0417,312.0417,85.8266,111.6095,1026.1,-11.41,-999.0,yes,yes,no,300234066084230,BD2GI,AOML,POLAR_STERN,North
2019-11-08T01:59:57Z,2019,2,0,312.0833,312.0833,85.8261,111.5892,1025.7,-11.54,-999.0,yes,yes,no,300234066084230,BD2GI,AOML,POLAR_STERN,North
2019-11-08T03:00:00Z,2019,3,0,312.125,312.125,85.8256,111.5714,1025.2,-11.61,-999.0,yes,yes,no,300234066084230,BD2GI,AOML,POLAR_STERN,North
2019-11-08T04:00:02Z,2019,4,0,312.1667,312.1667,85.8248,111.5553,1024.9,-11.62,-999.0,yes,yes,no,300234066084230,BD2GI,AOML,POLAR_STERN,North
2019-11-08T04:59:57Z,2019,5,0,312.2083,312.2083,85.8238,111.5392,1024.3,-11.58,-999.0,yes,yes,no,300234066084230,BD2GI,AOML,POLAR_STERN,North
2019-11-08T06:00:00Z,2019,6,0,312.25,312.25,85.8224,111.5206,1023.6,-11.48,-999.0,yes,yes,no,300234066084230,BD2GI,AOML,POLAR_STERN,North
2019-11-08T07:00:02Z,2019,7,0,312.2917,312.2917,85.8207,111.4996,1023.3,-11.43,-999.0,yes,yes,no,300234066084230,BD2GI,AOML,POLAR_STERN,North
2019-11-08T07:59:57Z,2019,8,0,312.3333,312.3333,85.8189,111.4775,1023.0,-11.34,-999.0,yes,yes,no,300234066084230,BD2GI,AOML,POLAR_STERN,North
2019-11-08T09:00:00Z,2019,9,0,312.375,312.375,85.8169,111.4553,1022.4,-11.3,-999.0,yes,yes,no,300234066084230,BD2GI,AOML,POLAR_STERN,North
2019-11-08T10:00:02Z,2019,10,0,312.4167,312.4167,85.8147,111.4285,1021.7,-11.4,-999.0,yes,yes,no,300234066084230,BD2GI,AOML,POLAR_STERN,North
2019-11-08T10:59:57Z,2019,11,0,312.4583,312.4583,85.8126,111.4021,1021.3,-11.37,-999.0,yes,yes,no,300234066084230,BD2GI,AOML,POLAR_STERN,North
2019-11-08T12:00:00Z,2019,12,0,312.5,312.5,85.8104,111.3755,1020.8,-11.32,-999.0,yes,yes,no,300234066084230,BD2GI,AOML,POLAR_STERN,North
2019-11-08T13:00:02Z,2019,13,0,312.5417,312.5417,85.8082,111.3496,1020.3,-11.12,-999.0,yes,yes,no,300234066084230,BD2GI,AOML,POLAR_STERN,North
2019-11-08T13:59:57Z,2019,14,0,312.5833,312.5833,85.8059,111.3245,1019.8,-10.94,-999.0,yes,yes,no,300234066084230,BD2GI,AOML,POLAR_STERN,North
2019-11-08T15:00:00Z,2019,15,0,312.625,312.625,85.8036,111.3018,1019.2,-10.7,-999.0,yes,yes,no,300234066084230,BD2GI,AOML,POLAR_STERN,North
2019-11-08T16:00:02Z,2019,16,0,312.6667,312.6667,85.8011,111.2814,1018.9,-10.59,-999.0,yes,yes,no,300234066084230,BD2GI,AOML,POLAR_STERN,North
2019-11-08T16:59:57Z,2019,17,0,312.7083,312.7083,85.7985,111.2625,1018.5,-10.61,-999.0,yes,yes,no,300234066084230,BD2GI,AOML,POLAR_STERN,North
2019-11-08T18:00:00Z,2019,18,0,312.75,312.75,85.7957,111.2444,1018.4,-10.65,-999.0,yes,yes,no,300234066084230,BD2GI,AOML,POLAR_STERN,North
2019-11-08T19:00:02Z,2019,19,0,312.7917,312.7917,85.7927,111.2274,1018.2,-10.62,-999.0,yes,yes,no,300234066084230,BD2GI,AOML,POLAR_STERN,North
2019-11-08T19:59:57Z,2019,20,0,312.8333,312.8333,85.7896,111.2102,1018.2,-10.61,-999.0,yes,yes,no,300234066084230,BD2GI,AOML,POLAR_STERN,North
2019-11-08T21:00:00Z,2019,21,0,312.875,312.875,85.7864,111.1921,1018.2,-10.55,-999.0,yes,yes,no,300234066084230,BD2GI,AOML,POLAR_STERN,North
2019-11-08T22:00:02Z,2019,22,0,312.9167,312.9167,85.7834,111.1754,1018.0,-10.47,-999.0,yes,yes,no,300234066084230,BD2GI,AOML,POLAR_STERN,North
2019-11-08T22:59:57Z,2019,23,0,312.9583,312.9583,85.7805,111.1611,1018.0,-10.43,-999.0,yes,yes,no,300234066084230,BD2GI,AOML,POLAR_STERN,North
2019-11-09T00:00:00Z,2019,0,0,313.0,313.0,85.7776,111.1483,1017.9,-10.47,-999.0,yes,yes,no,300234066084230,BD2GI,AOML,POLAR_STERN,North
2019-11-09T01:00:02Z,2019,1,0,313.0417,313.0417,85.7751,111.143,1017.8,-10.56,-999.0,yes,yes,no,300234066084230,BD2GI,AOML,POLAR_STERN,North
2019-11-09T01:59:57Z,2019,2,0,313.0833,313.0833,85.7726,111.142,1017.7,-10.58,-999.0,yes,yes,no,300234066084230,BD2GI,AOML,POLAR_STERN,North
2019-11-09T03:00:00Z,2019,3,0,313.125,313.125,85.7702,111.1454,1017.7,-10.54,-999.0,yes,yes,no,300234066084230,BD2GI,AOML,POLAR_STERN,North
2019-11-09T04:00:02Z,2019,4,0,313.1667,313.1667,85.7679,111.1512,1017.8,-10.59,-999.0,yes,yes,no,300234066084230,BD2GI,AOML,POLAR_STERN,North
2019-11-09T04:59:57Z,2019,5,0,313.2083,313.2083,85.7654,111.1586,1018.0,-10.59,-999.0,yes,yes,no,300234066084230,BD2GI,AOML,POLAR_STERN,North
2019-11-09T06:00:00Z,2019,6,0,313.25,313.25,85.7629,111.1654,1017.9,-10.62,-999.0,yes,yes,no,300234066084230,BD2GI,AOML,POLAR_STERN,North
2019-11-09T07:00:02Z,2019,7,0,313.2917,313.2917,85.7604,111.1694,1018.1,-10.7,-999.0,yes,yes,no,300234066084230,BD2GI,AOML,POLAR_STERN,North
2019-11-09T07:59:57Z,2019,8,0,313.3333,313.3333,85.7581,111.1709,1018.2,-10.81,-999.0,yes,yes,no,300234066084230,BD2GI,AOML,POLAR_STERN,North
2019-11-09T09:00:00Z,2019,9,0,313.375,313.375,85.7559,111.171,1018.5,-10.9,-999.0,yes,yes,no,300234066084230,BD2GI,AOML,POLAR_STERN,North
2019-11-09T10:00:02Z,2019,10,0,313.4167,313.4167,85.7539,111.1704,1018.7,-10.93,-999.0,yes,yes,no,300234066084230,BD2GI,AOML,POLAR_STERN,North
2019-11-09T10:59:57Z,2019,11,0,313.4583,313.4583,85.7521,111.1709,1018.8,-10.89,-999.0,yes,yes,no,300234066084230,BD2GI,AOML,POLAR_STERN,North
2019-11-09T12:00:00Z,2019,12,0,313.5,313.5,85.7505,111.1749,1018.8,-10.88,-999.0,yes,yes,no,300234066084230,BD2GI,AOML,POLAR_STERN,North
2019-11-09T13:00:02Z,2019,13,0,313.5417,313.5417,85.749,111.1835,1018.9,-10.85,-999.0,yes,yes,no,300234066084230,BD2GI,AOML,POLAR_STERN,North
2019-11-09T13:59:57Z,2019,14,0,313.5833,313.5833,85.7478,111.1964,1019.1,-10.77,-999.0,yes,yes,no,300234066084230,BD2GI,AOML,POLAR_STERN,North
2019-11-09T15:00:00Z,2019,15,0,313.625,313.625,85.7465,111.2127,1019.3,-10.73,-999.0,yes,yes,no,300234066084230,BD2GI,AOML,POLAR_STERN,North
2019-11-09T16:00:02Z,2019,16,0,313.6667,313.6667,85.7452,111.2304,1019.4,-10.69,-999.0,yes,yes,no,300234066084230,BD2GI,AOML,POLAR_STERN,North
2019-11-09T16:59:57Z,2019,17,0,313.7083,313.7083,85.7439,111.2482,1019.5,-10.76,-999.0,yes,yes,no,300234066084230,BD2GI,AOML,POLAR_STERN,North
2019-11-09T18:00:00Z,2019,18,0,313.75,313.75,85.7427,111.265,1019.7,-10.89,-999.0,yes,yes,no,300234066084230,BD2GI,AOML,POLAR_STERN,North
2019-11-09T19:00:02Z,2019,19,0,313.7917,313.7917,85.7416,111.2796,1019.9,-11.01,-999.0,yes,yes,no,300234066084230,BD2GI,AOML,POLAR_STERN,North
2019-11-09T19:59:57Z,2019,20,0,313.8333,313.8333,85.7405,111.2925,1020.0,-11.16,-999.0,yes,yes,no,300234066084230,BD2GI,AOML,POLAR_STERN,North
2019-11-09T21:00:00Z,2019,21,0,313.875,313.875,85.7397,111.3046,1020.3,-11.29,-999.0,yes,yes,no,300234066084230,BD2GI,AOML,POLAR_STERN,North
2019-11-09T22:00:02Z,2019,22,0,313.9167,313.9167,85.7391,111.3163,1020.4,-11.42,-999.0,yes,yes,no,300234066084230,BD2GI,AOML,POLAR_STERN,North
2019-11-09T22:59:57Z,2019,23,0,313.9583,313.9583,85.7387,111.3289,1020.5,-11.57,-999.0,yes,yes,no,300234066084230,BD2GI,AOML,POLAR_STERN,North
2019-11-10T00:00:00Z,2019,0,0,314.0,314.0,85.7385,111.3431,1020.7,-11.71,-999.0,yes,yes,no,300234066084230,BD2GI,AOML,POLAR_STERN,North
2019-11-10T01:00:02Z,2019,1,0,314.0417,314.0417,85.7385,111.3589,1020.6,-11.85,-999.0,yes,yes,no,300234066084230,BD2GI,AOML,POLAR_STERN,North
2019-11-10T01:59:57Z,2019,2,0,314.0833,314.0833,85.7386,111.3763,1020.6,-11.99,-999.0,yes,yes,no,300234066084230,BD2GI,AOML,POLAR_STERN,North
2019-11-10T03:00:00Z,2019,3,0,314.125,314.125,85.7388,111.3956,1020.9,-12.14,-999.0,yes,yes,no,300234066084230,BD2GI,AOML,POLAR_STERN,North
2019-11-10T04:00:02Z,2019,4,0,314.1667,314.1667,85.7391,111.416,1020.9,-12.29,-999.0,yes,yes,no,300234066084230,BD2GI,AOML,POLAR_STERN,North
2019-11-10T04:59:57Z,2019,5,0,314.2083,314.2083,85.7393,111.4363,1020.8,-12.44,-999.0,yes,yes,no,300234066084230,BD2GI,AOML,POLAR_STERN,North
2019-11-10T06:00:00Z,2019,6,0,314.25,314.25,85.7396,111.4554,1020.9,-12.58,-999.0,yes,yes,no,300234066084230,BD2GI,AOML,POLAR_STERN,North
2019-11-10T07:00:02Z,2019,7,0,314.2917,314.2917,85.7398,111.4722,1021.2,-12.69,-999.0,yes,yes,no,300234066084230,BD2GI,AOML,POLAR_STERN,North
2019-11-10T07:59:57Z,2019,8,0,314.3333,314.3333,85.7403,111.4862,1021.5,-12.78,-999.0,yes,yes,no,300234066084230,BD2GI,AOML,POLAR_STERN,North
2019-11-10T09:00:00Z,2019,9,0,314.375,314.375,85.741,111.4976,1021.6,-12.82,-999.0,yes,yes,no,300234066084230,BD2GI,AOML,POLAR_STERN,North
2019-11-10T10:00:02Z,2019,10,0,314.4167,314.4167,85.7419,111.5071,1021.8,-12.84,-999.0,yes,yes,no,300234066084230,BD2GI,AOML,POLAR_STERN,North
2019-11-10T10:59:57Z,2019,11,0,314.4583,314.4583,85.7431,111.5164,1021.9,-12.8,-999.0,yes,yes,no,300234066084230,BD2GI,AOML,POLAR_STERN,North
2019-11-10T12:00:00Z,2019,12,0,314.5,314.5,85.7445,111.5271,1022.0,-12.77,-999.0,yes,yes,no,300234066084230,BD2GI,AOML,POLAR_STERN,North
2019-11-10T13:00:02Z,2019,13,0,314.5417,314.5417,85.7461,111.5405,1022.0,-12.72,-999.0,yes,yes,no,300234066084230,BD2GI,AOML,POLAR_STERN,North
2019-11-10T13:59:57Z,2019,14,0,314.5833,314.5833,85.7479,111.557,1021.9,-12.67,-999.0,yes,yes,no,300234066084230,BD2GI,AOML,POLAR_STERN,North
2019-11-10T15:00:00Z,2019,15,0,314.625,314.625,85.7496,111.5759,1022.1,-12.61,-999.0,yes,yes,no,300234066084230,BD2GI,AOML,POLAR_STERN,North
2019-11-10T16:00:02Z,2019,16,0,314.6667,314.6667,85.7513,111.5956,1022.0,-12.6,-999.0,yes,yes,no,300234066084230,BD2GI,AOML,POLAR_STERN,North
2019-11-10T16:59:57Z,2019,17,0,314.7083,314.7083,85.753,111.6149,1022.0,-12.6,-999.0,yes,yes,no,300234066084230,BD2GI,AOML,POLAR_STERN,North
2019-11-10T18:00:00Z,2019,18,0,314.75,314.75,85.7548,111.6322,1022.1,-12.6,-999.0,yes,yes,no,300234066084230,BD2GI,AOML,POLAR_STERN,North
2019-11-10T19:00:02Z,2019,19,0,314.7917,314.7917,85.7568,111.6468,1022.3,-12.59,-999.0,yes,yes,no,300234066084230,BD2GI,AOML,POLAR_STERN,North
2019-11-10T19:59:57Z,2019,20,0,314.8333,314.8333,85.7591,111.6571,1022.6,-12.6,-999.0,yes,yes,no,300234066084230,BD2GI,AOML,POLAR_STERN,North
2019-11-10T21:00:00Z,2019,21,0,314.875,314.875,85.7617,111.6645,1023.1,-12.57,-999.0,yes,yes,no,300234066084230,BD2GI,AOML,POLAR_STERN,North
2019-11-10T22:00:02Z,2019,22,0,314.9167,314.9167,85.7647,111.6701,1023.3,-12.52,-999.0,yes,yes,no,300234066084230,BD2GI,AOML,POLAR_STERN,North
2019-11-10T22:59:57Z,2019,23,0,314.9583,314.9583,85.768,111.676,1023.4,-12.48,-999.0,yes,yes,no,300234066084230,BD2GI,AOML,POLAR_STERN,North
2019-11-11T00:00:00Z,2019,0,0,315.0,315.0,85.7717,111.6833,1023.6,-12.33,-999.0,yes,yes,no,300234066084230,BD2GI,AOML,POLAR_STERN,North
2019-11-11T01:00:02Z,2019,1,0,315.0417,315.0417,85.7756,111.6937,1023.7,-12.13,-999.0,yes,yes,no,300234066084230,BD2GI,AOML,POLAR_STERN,North
2019-11-11T01:59:57Z,2019,2,0,315.0833,315.0833,85.7797,111.7074,1023.8,-11.99,-999.0,yes,yes,no,300234066084230,BD2GI,AOML,POLAR_STERN,North
2019-11-11T03:00:00Z,2019,3,0,315.125,315.125,85.784,111.724,1023.9,-11.93,-999.0,yes,yes,no,300234066084230,BD2GI,AOML,POLAR_STERN,North
2019-11-11T04:00:02Z,2019,4,0,315.1667,315.1667,85.7886,111.7415,1023.7,-11.91,-999.0,yes,yes,no,300234066084230,BD2GI,AOML,POLAR_STERN,North
2019-11-11T04:59:57Z,2019,5,0,315.2083,315.2083,85.7934,111.7576,1023.4,-11.81,-999.0,yes,yes,no,300234066084230,BD2GI,AOML,POLAR_STERN,North
2019-11-11T06:00:00Z,2019,6,0,315.25,315.25,85.7986,111.7724,1023.4,-11.83,-999.0,yes,yes,no,300234066084230,BD2GI,AOML,POLAR_STERN,North
2019-11-11T07:00:02Z,2019,7,0,315.2917,315.2917,85.8043,111.7865,1023.3,-11.87,-999.0,yes,yes,no,300234066084230,BD2GI,AOML,POLAR_STERN,North
2019-11-11T07:59:57Z,2019,8,0,315.3333,315.3333,85.8104,111.7984,1023.3,-11.85,-999.0,yes,yes,no,300234066084230,BD2GI,AOML,POLAR_STERN,North
2019-11-11T09:00:00Z,2019,9,0,315.375,315.375,85.817,111.8114,1023.4,-11.82,-999.0,yes,yes,no,300234066084230,BD2GI,AOML,POLAR_STERN,North
2019-11-11T10:00:02Z,2019,10,0,315.4167,315.4167,85.824,111.8252,1023.4,-11.74,-999.0,yes,yes,no,300234066084230,BD2GI,AOML,POLAR_STERN,North
2019-11-11T10:59:57Z,2019,11,0,315.4583,315.4583,85.8314,111.8419,1023.2,-11.63,-999.0,yes,yes,no,300234066084230,BD2GI,AOML,POLAR_STERN,North
2019-11-11T12:00:00Z,2019,12,0,315.5,315.5,85.8387,111.8625,1022.9,-11.48,-999.0,yes,yes,no,300234066084230,BD2GI,AOML,POLAR_STERN,North
2019-11-11T13:00:02Z,2019,13,0,315.5417,315.5417,85.8461,111.8877,1022.5,-11.33,-999.0,yes,yes,no,300234066084230,BD2GI,AOML,POLAR_STERN,North
2019-11-11T13:59:57Z,2019,14,0,315.5833,315.5833,85.8532,111.9181,1022.1,-11.16,-999.0,yes,yes,no,300234066084230,BD2GI,AOML,POLAR_STERN,North
2019-11-11T15:00:00Z,2019,15,0,315.625,315.625,85.8598,111.953,1022.1,-10.99,-999.0,yes,yes,no,300234066084230,BD2GI,AOML,POLAR_STERN,North
2019-11-11T16:00:02Z,2019,16,0,315.6667,315.6667,85.866,111.992,1022.2,-10.8,-999.0,yes,yes,no,300234066084230,BD2GI,AOML,POLAR_STERN,North
2019-11-11T16:59:57Z,2019,17,0,315.7083,315.7083,85.8716,112.0334,1022.5,-10.62,-999.0,yes,yes,no,300234066084230,BD2GI,AOML,POLAR_STERN,North
2019-11-11T18:00:00Z,2019,18,0,315.75,315.75,85.8767,112.0749,1022.9,-10.45,-999.0,yes,yes,no,300234066084230,BD2GI,AOML,POLAR_STERN,North
2019-11-11T19:00:02Z,2019,19,0,315.7917,315.7917,85.8814,112.117,1023.6,-10.27,-999.0,yes,yes,no,300234066084230,BD2GI,AOML,POLAR_STERN,North
2019-11-11T19:59:57Z,2019,20,0,315.8333,315.8333,85.8861,112.1588,1024.3,-10.1,-999.0,yes,yes,no,300234066084230,BD2GI,AOML,POLAR_STERN,North
2019-11-11T21:00:00Z,2019,21,0,315.875,315.875,85.8908,112.1999,1025.1,-9.91,-999.0,yes,yes,no,300234066084230,BD2GI,AOML,POLAR_STERN,North
2019-11-11T22:00:02Z,2019,22,0,315.9167,315.9167,85.8955,112.2401,1025.8,-9.73,-999.0,yes,yes,no,300234066084230,BD2GI,AOML,POLAR_STERN,North
2019-11-11T22:59:57Z,2019,23,0,315.9583,315.9583,85.9003,112.2813,1026.3,-9.57,-999.0,yes,yes,no,300234066084230,BD2GI,AOML,POLAR_STERN,North
2019-11-12T00:00:00Z,2019,0,0,316.0,316.0,85.9051,112.3251,1026.7,-9.43,-999.0,yes,yes,no,300234066084230,BD2GI,AOML,POLAR_STERN,North
2019-11-12T01:00:02Z,2019,1,0,316.0417,316.0417,85.9099,112.3706,1027.0,-9.3,-999.0,yes,yes,no,300234066084230,BD2GI,AOML,POLAR_STERN,North
2019-11-12T01:59:57Z,2019,2,0,316.0833,316.0833,85.9148,112.4171,1027.3,-9.19,-999.0,yes,yes,no,300234066084230,BD2GI,AOML,POLAR_STERN,North
2019-11-12T03:00:00Z,2019,3,0,316.125,316.125,85.9198,112.4639,1027.6,-9.1,-999.0,yes,yes,no,300234066084230,BD2GI,AOML,POLAR_STERN,North
2019-11-12T04:00:02Z,2019,4,0,316.1667,316.1667,85.9246,112.5075,1027.6,-9.01,-999.0,yes,yes,no,300234066084230,BD2GI,AOML,POLAR_STERN,North
2019-11-12T04:59:57Z,2019,5,0,316.2083,316.2083,85.9294,112.5464,1027.6,-8.91,-999.0,yes,yes,no,300234066084230,BD2GI,AOML,POLAR_STERN,North
2019-11-12T06:00:00Z,2019,6,0,316.25,316.25,85.934,112.5796,1027.9,-8.82,-999.0,yes,yes,no,300234066084230,BD2GI,AOML,POLAR_STERN,North
2019-11-12T07:00:02Z,2019,7,0,316.2917,316.2917,85.9387,112.6038,1028.1,-8.74,-999.0,yes,yes,no,300234066084230,BD2GI,AOML,POLAR_STERN,North
2019-11-12T07:59:57Z,2019,8,0,316.3333,316.3333,85.9434,112.6201,1028.2,-8.69,-999.0,yes,yes,no,300234066084230,BD2GI,AOML,POLAR_STERN,North
2019-11-12T09:00:00Z,2019,9,0,316.375,316.375,85.9483,112.6313,1028.5,-8.68,-999.0,yes,yes,no,300234066084230,BD2GI,AOML,POLAR_STERN,North
2019-11-12T10:00:02Z,2019,10,0,316.4167,316.4167,85.9534,112.6413,1028.6,-8.74,-999.0,yes,yes,no,300234066084230,BD2GI,AOML,POLAR_STERN,North
2019-11-12T10:59:57Z,2019,11,0,316.4583,316.4583,85.9587,112.6535,1028.7,-8.82,-999.0,yes,yes,no,300234066084230,BD2GI,AOML,POLAR_STERN,North
2019-11-12T12:00:00Z,2019,12,0,316.5,316.5,85.9641,112.6697,1028.8,-8.9,-999.0,yes,yes,no,300234066084230,BD2GI,AOML,POLAR_STERN,North
2019-11-12T13:00:02Z,2019,13,0,316.5417,316.5417,85.9693,112.6906,1028.4,-8.97,-999.0,yes,yes,no,300234066084230,BD2GI,AOML,POLAR_STERN,North
2019-11-12T13:59:57Z,2019,14,0,316.5833,316.5833,85.9743,112.7149,1028.5,-8.97,-999.0,yes,yes,no,300234066084230,BD2GI,AOML,POLAR_STERN,North
2019-11-12T15:00:00Z,2019,15,0,316.625,316.625,85.9791,112.7411,1028.3,-8.95,-999.0,yes,yes,no,300234066084230,BD2GI,AOML,POLAR_STERN,North
2019-11-12T16:00:02Z,2019,16,0,316.6667,316.6667,85.9835,112.7674,1028.0,-8.91,-999.0,yes,yes,no,300234066084230,BD2GI,AOML,POLAR_STERN,North
2019-11-12T16:59:57Z,2019,17,0,316.7083,316.7083,85.9878,112.7923,1028.1,-8.85,-999.0,yes,yes,no,300234066084230,BD2GI,AOML,POLAR_STERN,North
2019-11-12T18:00:00Z,2019,18,0,316.75,316.75,85.9918,112.8133,1028.0,-8.78,-999.0,yes,yes,no,300234066084230,BD2GI,AOML,POLAR_STERN,North
2019-11-12T19:00:02Z,2019,19,0,316.7917,316.7917,85.9955,112.8306,1028.0,-8.7,-999.0,yes,yes,no,300234066084230,BD2GI,AOML,POLAR_STERN,North
2019-11-12T19:59:57Z,2019,20,0,316.8333,316.8333,85.9992,112.8443,1028.2,-8.63,-999.0,yes,yes,no,300234066084230,BD2GI,AOML,POLAR_STERN,North
2019-11-12T21:00:00Z,2019,21,0,316.875,316.875,86.0029,112.8533,1028.1,-8.55,-999.0,yes,yes,no,300234066084230,BD2GI,AOML,POLAR_STERN,North
2019-11-12T22:00:02Z,2019,22,0,316.9167,316.9167,86.0068,112.861,1028.1,-8.47,-999.0,yes,yes,no,300234066084230,BD2GI,AOML,POLAR_STERN,North
2019-11-12T22:59:57Z,2019,23,0,316.9583,316.9583,86.0109,112.8705,1028.2,-8.39,-999.0,yes,yes,no,300234066084230,BD2GI,AOML,POLAR_STERN,North
2019-11-13T00:00:00Z,2019,0,0,317.0,317.0,86.0151,112.8849,1028.1,-8.3,-999.0,yes,yes,no,300234066084230,BD2GI,AOML,POLAR_STERN,North